SCP
0 0 0 0 0 0 1 1 1 2 2 2 1 1 1 1 1 2 1 1 1 1 1 1 1 1 1 1 1 0 0 0 0 0 0 0 -0 -0 -0 -0 0 0 0
0 0 0 0 0 0 0 0 1 1 2 2 1 1 1 0 0 0 0 0 0 0 1 1 1 1 0 0 0 0 0 0 0 0 0 0 -0 0 -0 -0 -0 0 0
0 0 0 0 0 0 0 0 1 1 1 1 1 1 1 0 0 0 0 0 0 0 0 0 0 0 0 1 0 0 0 0 0 0 0 0 0 0 0 0 0 0 0
0 0 0 0 0 0 0 0 0 1 1 1 1 1 1 0 0 0 0 0 0 0 0 0 0 0 0 0 1 0 0 0 0 0 0 0 0 0 0 0 -0 0 0
0 0 0 0 0 0 0 0 0 0 0 0 1 1 1 0 0 0 0 0 0 0 0 0 0 0 0 0 1 1 1 0 0 0 0 0 0 0 0 0 0 0 0
0 0 0 0 0 0 0 0 0 0 0 0 1 1 1 1 0 0 0 0 0 0 0 -0 0 0 0 0 0 1 0 1 1 1 1 0 0 0 0 0 0 0 0
0 0 0 0 0 0 0 0 0 0 0 0 0 0 0 0 0 0 0 0 0 0 0 0 -0 0 0 0 0 0 0 0 0 1 1 1 1 0 0 0 0 0 0
0 0 0 0 0 0 0 0 0 0 0 0 0 0 0 0 0 0 0 0 0 0 0 -0 -0 0 0 0 0 0 0 0 0 0 1 1 0 0 0 0 0 0 0
0 0 0 0 0 -0 0 0 0 0 0 0 0 0 0 0 0 0 0 0 0 0 0 0 0 0 0 0 0 0 0 0 0 0 0 0 0 0 0 0 0 0 0
0 0 0 0 0 0 0 -0 0 0 0 0 0 0 0 0 0 0 0 0 0 0 0 0 0 0 0 0 0 0 0 0 0 0 0 0 0 0 0 0 0 0 0
0 0 0 0 0 0 -0 0 -0 0 0 0 0 0 0 0 0 0 0 0 0 0 0 0 0 0 0 0 0 0 0 0 0 0 0 0 0 0 0 0 0 0 0
0 0 0 0 0 -0 0 0 -0 -0 -0 0 0 0 0 0 0 0 0 0 0 0 0 0 0 0 0 0 0 0 0 0 0 0 0 0 0 0 0 0 0 0 0
0 0 0 0 0 -0 0 -0 -0 -0 -0 0 0 0 0 0 0 0 0 0 0 0 0 0 0 0 0 0 0 0 0 0 0 0 0 0 0 0 0 0 0 0 0
0 0 0 0 -0 -0 0 -0 -0 0 -0 -0 -0 -0 -0 0 0 0 0 0 0 0 0 0 0 0 0 0 0 0 0 0 0 0 0 0 0 0 0 0 0 0 0
-0 -0 -0 -0 0 0 -0 -0 -0 -0 -0 -0 -0 -0 -0 -0 -0 0 0 0 0 0 0 0 0 0 0 0 0 0 0 0 0 0 0 0 0 0 0 0 0 0 0
0 -0 0 0 -0 -0 -0 -0 -0 -0 0 0 0 -0 -0 -0 -0 0 0 0 0 0 0 -0 -0 0 0 0 0 0 0 0 0 0 0 0 0 0 0 0 0 0 0
0 0 0 0 0 -0 -0 -0 -0 -0 0 0 0 0 -0 -0 0 0 0 0 0 0 0 0 -0 -0 0 0 0 0 0 0 0 0 0 0 0 0 0 0 0 0 0
0 -0 0 0 0 0 0 -0 -0 -0 -0 -0 -0 -0 -0 0 0 0 0 0 0 0 0 0 -0 -0 -0 -0 -0 0 0 0 0 0 0 0 0 0 0 0 0 0 0
0 0 0 0 0 0 -0 0 0 0 -0 -0 -0 -0 0 0 0 0 0 0 0 0 0 -0 0 0 -0 0 0 0 0 0 0 0 0 0 0 0 0 0 0 0 0
0 0 0 0 0 -0 -0 0 0 0 0 -0 -0 -0 -0 0 0 0 0 0 0 0 0 0 0 0 0 0 0 -0 -0 0 0 0 0 0 0 0 0 0 0 0 0
0 0 0 0 0 0 0 0 0 0 -0 0 0 0 0 0 0 0 0 0 0 0 0 0 0 0 0 0 0 0 0 0 0 0 0 0 0 0 0 0 0 0 0
0 0 0 0 0 0 0 0 0 0 0 0 0 0 0 0 0 0 0 0 0 0 0 0 0 0 0 0 0 0 0 0 0 0 0 0 0 0 0 0 0 0 0
0 0 0 0 0 0 0 0 0 0 0 0 0 0 0 0 0 0 0 0 0 0 0 0 0 0 0 0 0 0 0 0 0 0 0 0 0 0 0 0 0 0 0
0 0 0 0 0 0 0 0 0 0 0 0 0 0 0 0 0 0 0 0 0 0 0 0 0 0 0 0 0 0 0 0 0 0 0 0 0 0 0 0 0 0 0
0 0 0 0 0 0 0 0 0 0 0 0 0 0 0 0 0 0 0 -0 -0 0 0 0 0 0 0 0 0 0 0 0 0 0 0 0 0 0 0 0 0 0 0
0 0 0 0 0 0 0 0 0 0 0 0 0 0 0 0 0 0 0 0 0 0 0 0 0 0 0 0 0 0 0 0 0 0 -0 -0 0 0 0 0 0 0 0
Wind_Speed_500mb
64 61 60 58 63 67 65 73 75 70 66 66 63 65 75 93 106 104 105 90 93 94 94 97 92 81 76 75 73 74 72 68 72 70 66 57 50 52 52 53 47 44 47
54 58 56 56 59 64 73 73 70 77 70 71 67 63 60 64 69 77 103 81 77 88 87 89 89 82 78 75 73 70 74 72 71 71 68 65 58 53 52 47 46 47 46
51 51 48 49 51 54 62 70 78 65 72 72 73 69 64 63 58 53 52 37 84 54 77 68 74 74 77 71 73 68 71 73 72 73 72 67 63 58 51 47 48 49 45
51 50 51 49 49 52 54 56 57 66 71 72 72 68 63 65 55 53 32 49 44 71 69 78 67 67 78 74 74 69 63 69 69 70 71 68 64 59 57 56 53 53 52
47 50 54 56 56 54 55 56 57 61 71 73 72 68 65 67 56 52 53 50 68 70 106 109 79 69 67 69 73 70 65 61 66 66 68 66 65 60 58 51 50 46 44
44 46 55 60 60 55 58 56 54 55 57 63 64 63 62 64 56 56 63 64 68 77 85 86 71 71 76 68 69 71 73 66 66 66 64 65 64 60 53 52 50 43 47
39 45 49 48 52 56 70 66 53 51 47 47 52 57 61 63 62 57 61 68 68 76 77 82 73 56 60 78 85 82 78 73 66 60 60 62 58 55 50 53 50 51 53
34 41 42 49 69 77 67 53 42 37 35 34 41 45 47 55 54 47 49 61 68 77 83 81 71 63 60 52 72 81 71 61 67 66 62 62 55 44 45 47 49 50 48
38 40 43 56 65 72 65 54 25 28 32 25 24 29 33 35 40 43 46 48 50 62 79 78 69 62 55 46 56 97 104 91 65 64 60 62 60 52 51 48 52 48 47
38 40 42 42 59 57 57 67 25 17 20 17 24 27 30 29 32 35 37 41 41 47 52 57 63 76 75 57 67 71 63 82 69 58 52 62 64 64 65 58 53 53 49
39 39 39 38 49 47 41 53 64 18 14 20 15 21 28 32 30 32 31 32 33 35 35 37 40 41 48 55 56 55 53 46 52 53 59 60 59 58 60 59 57 52 51
42 37 45 26 41 37 25 55 59 58 39 26 15 0 11 21 27 36 30 26 21 21 26 27 29 31 33 29 35 42 46 43 48 59 64 55 44 41 42 43 43 41 40
39 49 39 22 24 26 33 36 43 48 59 65 40 47 40 35 25 23 16 17 20 16 13 14 15 13 12 12 12 12 17 26 30 29 24 17 21 25 28 33 36 37 36
34 41 34 22 18 19 25 29 28 40 39 38 44 45 36 37 43 37 28 21 19 17 16 15 14 16 17 16 16 16 17 16 18 20 18 17 14 12 17 21 24 26 30
29 29 36 27 21 24 27 29 35 33 35 34 33 34 35 39 41 37 31 26 30 27 30 31 25 12 11 17 15 16 19 20 15 14 12 10 7 7 9 14 21 24 25
12 25 34 33 47 34 21 21 28 33 31 29 26 25 29 31 30 29 29 26 22 22 22 23 29 27 24 21 19 16 18 15 12 8 2 1 7 9 11 14 11 8 6
15 18 25 27 34 34 32 24 17 26 29 33 40 37 32 33 32 21 17 24 21 19 27 24 28 22 19 18 14 9 11 8 7 13 11 12 16 15 12 6 3 7 12
17 9 19 19 21 21 22 20 24 28 20 21 32 36 33 27 29 31 21 28 27 24 19 16 21 26 21 15 13 11 10 9 8 10 10 9 8 8 8 11 9 4 4
10 20 21 8 13 17 19 14 17 18 19 16 17 16 25 25 25 24 24 24 26 21 19 13 12 14 14 16 19 19 8 3 3 6 10 10 8 9 11 14 16 6 5
9 17 21 23 13 12 18 21 14 9 10 16 12 10 17 21 21 23 20 12 11 10 8 7 9 9 11 13 18 17 21 7 7 6 2 4 5 7 6 9 10 10 12
5 13 12 9 10 18 20 17 22 27 19 15 20 16 14 17 23 24 20 16 11 9 11 11 10 8 7 4 6 5 4 4 1 7 10 10 12 18 15 17 19 25 25
3 8 13 7 8 12 24 24 27 29 32 30 27 22 17 22 23 26 26 23 21 20 20 11 3 11 18 17 18 21 20 17 15 14 16 16 15 17 22 24 27 30 35
9 4 8 18 24 21 21 29 29 27 25 22 19 15 15 17 19 21 21 21 21 22 18 12 8 7 7 9 11 15 23 29 29 30 24 26 25 25 28 29 31 30 29
15 11 11 12 13 14 21 23 22 19 18 20 18 17 16 18 21 24 26 28 28 23 22 22 21 19 19 19 18 16 22 25 30 27 32 36 39 41 40 39 38 37 36
7 7 10 9 8 12 13 15 17 18 15 12 14 15 15 10 14 18 21 28 34 35 30 28 27 28 30 32 33 33 34 36 39 40 42 40 41 43 44 47 50 57 58
8 3 7 8 10 11 10 11 13 15 13 11 12 13 14 15 16 17 21 27 31 34 35 35 37 34 33 35 38 40 43 47 52 57 60 61 61 58 56 55 55 55 56
Wind_Direction_500mb
311 306 298 285 270 268 269 267 268 270 272 276 279 277 269 258 256 253 247 238 249 250 250 248 245 243 248 250 248 250 249 248 251 263 267 268 262 271 275 269 261 257 272
316 313 304 300 288 277 268 267 270 270 267 269 270 271 278 276 270 258 240 254 251 248 240 250 248 245 244 248 250 250 251 251 250 257 266 269 269 279 281 273 266 259 267
321 320 316 314 307 295 282 274 266 267 265 268 271 272 268 269 272 244 277 258 226 212 227 231 245 246 248 246 248 249 250 249 253 254 263 268 274 277 273 278 272 260 262
333 326 321 314 313 307 296 287 278 265 262 264 267 271 265 264 264 260 257 237 247 232 256 249 244 242 248 245 248 249 249 252 251 257 260 267 273 274 273 278 267 257 255
334 333 329 322 318 312 306 295 288 278 266 263 263 262 257 259 257 249 243 220 236 230 238 228 237 244 249 248 247 250 249 250 255 255 259 263 264 266 269 274 267 262 254
335 333 331 322 318 315 319 307 295 287 274 262 254 251 252 255 255 250 237 231 241 236 230 220 237 250 238 247 246 248 248 246 250 257 261 261 264 265 266 266 262 257 258
338 340 339 339 330 325 323 310 287 287 274 259 249 249 250 254 254 250 245 238 237 232 213 215 231 237 252 256 252 253 244 247 247 255 261 262 269 268 264 258 254 253 252
343 346 346 347 349 343 327 307 275 276 271 251 249 252 250 252 249 252 251 250 234 218 223 233 244 252 259 265 241 244 242 248 250 254 252 259 265 264 255 255 254 254 254
345 347 359 357 350 348 350 7 330 269 254 241 238 242 244 250 252 249 244 245 250 239 239 242 242 249 256 268 250 238 246 259 254 241 247 255 256 256 259 253 246 249 252
341 340 347 345 349 349 5 3 348 289 253 245 239 242 242 241 245 242 236 237 241 243 247 246 250 250 254 253 250 253 244 248 246 250 248 248 250 251 252 251 242 243 254
341 344 339 339 328 335 355 15 20 16 230 241 255 246 233 231 231 235 234 223 226 231 236 245 253 252 256 254 252 249 247 249 250 254 250 250 247 250 247 245 244 248 249
353 351 345 350 351 352 5 25 23 50 64 63 61 205 231 228 230 227 226 216 212 219 227 236 245 243 245 248 251 247 248 251 250 249 246 241 238 243 249 245 237 234 244
352 355 348 352 344 8 23 47 43 43 51 53 51 79 85 100 107 129 154 185 198 206 222 208 196 198 204 213 225 225 207 208 206 207 216 223 246 242 246 240 238 241 238
355 8 9 15 3 38 47 47 57 64 59 69 67 65 68 69 78 85 107 116 121 118 138 149 140 149 151 154 145 157 156 169 184 187 193 203 213 221 235 241 243 250 254
13 0 30 47 38 31 47 60 67 63 63 66 71 74 72 70 67 66 72 80 86 104 101 88 77 83 117 106 122 134 135 134 148 158 164 159 168 200 220 241 251 249 253
20 2 31 38 43 30 58 52 63 61 61 62 62 63 65 62 60 63 68 81 83 75 77 86 93 95 77 72 83 97 106 104 98 91 51 169 212 238 271 266 256 236 236
21 16 14 34 53 49 51 48 59 43 52 55 68 66 63 60 49 49 76 77 86 84 96 98 89 95 109 106 84 88 90 85 16 337 300 267 261 259 258 224 183 259 262
13 358 3 9 62 54 36 44 51 46 47 68 62 59 59 58 51 49 106 80 91 77 76 91 88 73 57 47 31 358 332 319 344 29 44 75 92 88 92 60 34 360 303
43 51 20 39 28 36 33 52 46 53 63 65 57 56 42 39 48 58 78 78 78 81 74 61 36 15 31 25 16 12 358 345 10 70 99 85 80 72 80 36 28 5 303
101 58 30 51 69 53 71 42 23 23 52 74 78 38 18 29 36 24 35 40 67 45 75 75 14 358 7 2 14 47 48 94 71 41 358 307 306 316 324 315 320 334 318
54 30 33 18 60 30 22 27 40 56 70 81 92 86 53 42 63 60 45 31 16 321 269 276 285 280 220 271 283 310 47 99 341 282 287 299 282 277 303 287 287 292 284
41 28 35 40 60 76 65 61 77 76 86 90 96 98 93 84 76 70 64 57 46 46 51 46 233 217 226 244 252 253 250 255 255 258 275 279 268 270 272 267 275 281 282
137 160 98 82 97 100 80 83 85 92 86 82 71 55 28 19 16 19 18 9 358 350 345 355 3 338 325 316 291 261 256 261 268 274 281 274 272 273 266 271 283 284 279
130 116 120 97 79 76 88 96 103 103 93 80 70 60 40 14 354 347 341 338 338 330 314 311 311 316 320 314 304 291 282 294 280 301 289 284 280 279 277 270 268 267 270
153 110 98 85 67 66 66 73 75 81 83 75 81 61 42 27 0 352 340 330 325 323 329 310 300 299 300 301 301 299 296 294 294 292 293 293 290 288 286 282 276 274 266
134 84 46 45 54 53 47 46 48 49 46 28 4 357 352 349 346 334 321 317 318 321 325 321 315 313 308 295 293 292 292 294 295 296 297 296 293 290 289 288 286 281 271
Wind_Speed_850mb
64 61 60 58 63 67 65 73 75 70 66 66 63 65 75 93 106 104 105 90 93 94 94 97 92 81 76 75 73 74 72 68 72 70 66 57 50 52 52 53 47 44 47
54 58 56 56 59 64 73 73 70 77 70 71 67 63 60 64 69 77 103 81 77 88 87 89 89 82 78 75 73 70 74 72 71 71 68 65 58 53 52 47 46 47 46
51 51 48 49 51 54 62 70 78 65 72 72 73 69 64 63 58 53 52 37 84 54 77 68 74 74 77 71 73 68 71 73 72 73 72 67 63 58 51 47 48 49 45
51 50 51 49 49 52 54 56 57 66 71 72 72 68 63 65 55 53 32 49 44 71 69 78 67 67 78 74 74 69 63 69 69 70 71 68 64 59 57 56 53 53 52
47 50 54 56 56 54 55 56 57 61 71 73 72 68 65 67 56 52 53 50 68 70 106 109 79 69 67 69 73 70 65 61 66 66 68 66 65 60 58 51 50 46 44
44 46 55 60 60 55 58 56 54 55 57 63 64 63 62 64 56 56 63 64 68 77 85 86 71 71 76 68 69 71 73 66 66 66 64 65 64 60 53 52 50 43 47
39 45 49 48 52 56 70 66 53 51 47 47 52 57 61 63 62 57 61 68 68 76 77 82 73 56 60 78 85 82 78 73 66 60 60 62 58 55 50 53 50 51 53
34 41 42 49 69 77 67 53 42 37 35 34 41 45 47 55 54 47 49 61 68 77 83 81 71 63 60 52 72 81 71 61 67 66 62 62 55 44 45 47 49 50 48
38 40 43 56 65 72 65 54 25 28 32 25 24 29 33 35 40 43 46 48 50 62 79 78 69 62 55 46 56 97 104 91 65 64 60 62 60 52 51 48 52 48 47
38 40 42 42 59 57 57 67 25 17 20 17 24 27 30 29 32 35 37 41 41 47 52 57 63 76 75 57 67 71 63 82 69 58 52 62 64 64 65 58 53 53 49
39 39 39 38 49 47 41 53 64 18 14 20 15 21 28 32 30 32 31 32 33 35 35 37 40 41 48 55 56 55 53 46 52 53 59 60 59 58 60 59 57 52 51
42 37 45 26 41 37 25 55 59 58 39 26 15 0 11 21 27 36 30 26 21 21 26 27 29 31 33 29 35 42 46 43 48 59 64 55 44 41 42 43 43 41 40
39 49 39 22 24 26 33 36 43 48 59 65 40 47 40 35 25 23 16 17 20 16 13 14 15 13 12 12 12 12 17 26 30 29 24 17 21 25 28 33 36 37 36
34 41 34 22 18 19 25 29 28 40 39 38 44 45 36 37 43 37 28 21 19 17 16 15 14 16 17 16 16 16 17 16 18 20 18 17 14 12 17 21 24 26 30
29 29 36 27 21 24 27 29 35 33 35 34 33 34 35 39 41 37 31 26 30 27 30 31 25 12 11 17 15 16 19 20 15 14 12 10 7 7 9 14 21 24 25
12 25 34 33 47 34 21 21 28 33 31 29 26 25 29 31 30 29 29 26 22 22 22 23 29 27 24 21 19 16 18 15 12 8 2 1 7 9 11 14 11 8 6
15 18 25 27 34 34 32 24 17 26 29 33 40 37 32 33 32 21 17 24 21 19 27 24 28 22 19 18 14 9 11 8 7 13 11 12 16 15 12 6 3 7 12
17 9 19 19 21 21 22 20 24 28 20 21 32 36 33 27 29 31 21 28 27 24 19 16 21 26 21 15 13 11 10 9 8 10 10 9 8 8 8 11 9 4 4
10 20 21 8 13 17 19 14 17 18 19 16 17 16 25 25 25 24 24 24 26 21 19 13 12 14 14 16 19 19 8 3 3 6 10 10 8 9 11 14 16 6 5
9 17 21 23 13 12 18 21 14 9 10 16 12 10 17 21 21 23 20 12 11 10 8 7 9 9 11 13 18 17 21 7 7 6 2 4 5 7 6 9 10 10 12
5 13 12 9 10 18 20 17 22 27 19 15 20 16 14 17 23 24 20 16 11 9 11 11 10 8 7 4 6 5 4 4 1 7 10 10 12 18 15 17 19 25 25
3 8 13 7 8 12 24 24 27 29 32 30 27 22 17 22 23 26 26 23 21 20 20 11 3 11 18 17 18 21 20 17 15 14 16 16 15 17 22 24 27 30 35
9 4 8 18 24 21 21 29 29 27 25 22 19 15 15 17 19 21 21 21 21 22 18 12 8 7 7 9 11 15 23 29 29 30 24 26 25 25 28 29 31 30 29
15 11 11 12 13 14 21 23 22 19 18 20 18 17 16 18 21 24 26 28 28 23 22 22 21 19 19 19 18 16 22 25 30 27 32 36 39 41 40 39 38 37 36
7 7 10 9 8 12 13 15 17 18 15 12 14 15 15 10 14 18 21 28 34 35 30 28 27 28 30 32 33 33 34 36 39 40 42 40 41 43 44 47 50 57 58
8 3 7 8 10 11 10 11 13 15 13 11 12 13 14 15 16 17 21 27 31 34 35 35 37 34 33 35 38 40 43 47 52 57 60 61 61 58 56 55 55 55 56
Wind_Direction_850mb
311 306 298 285 270 268 269 267 268 270 272 276 279 277 269 258 256 253 247 238 249 250 250 248 245 243 248 250 248 250 249 248 251 263 267 268 262 271 275 269 261 257 272
316 313 304 300 288 277 268 267 270 270 267 269 270 271 278 276 270 258 240 254 251 248 240 250 248 245 244 248 250 250 251 251 250 257 266 269 269 279 281 273 266 259 267
321 320 316 314 307 295 282 274 266 267 265 268 271 272 268 269 272 244 277 258 226 212 227 231 245 246 248 246 248 249 250 249 253 254 263 268 274 277 273 278 272 260 262
333 326 321 314 313 307 296 287 278 265 262 264 267 271 265 264 264 260 257 237 247 232 256 249 244 242 248 245 248 249 249 252 251 257 260 267 273 274 273 278 267 257 255
334 333 329 322 318 312 306 295 288 278 266 263 263 262 257 259 257 249 243 220 236 230 238 228 237 244 249 248 247 250 249 250 255 255 259 263 264 266 269 274 267 262 254
335 333 331 322 318 315 319 307 295 287 274 262 254 251 252 255 255 250 237 231 241 236 230 220 237 250 238 247 246 248 248 246 250 257 261 261 264 265 266 266 262 257 258
338 340 339 339 330 325 323 310 287 287 274 259 249 249 250 254 254 250 245 238 237 232 213 215 231 237 252 256 252 253 244 247 247 255 261 262 269 268 264 258 254 253 252
343 346 346 347 349 343 327 307 275 276 271 251 249 252 250 252 249 252 251 250 234 218 223 233 244 252 259 265 241 244 242 248 250 254 252 259 265 264 255 255 254 254 254
345 347 359 357 350 348 350 7 330 269 254 241 238 242 244 250 252 249 244 245 250 239 239 242 242 249 256 268 250 238 246 259 254 241 247 255 256 256 259 253 246 249 252
341 340 347 345 349 349 5 3 348 289 253 245 239 242 242 241 245 242 236 237 241 243 247 246 250 250 254 253 250 253 244 248 246 250 248 248 250 251 252 251 242 243 254
341 344 339 339 328 335 355 15 20 16 230 241 255 246 233 231 231 235 234 223 226 231 236 245 253 252 256 254 252 249 247 249 250 254 250 250 247 250 247 245 244 248 249
353 351 345 350 351 352 5 25 23 50 64 63 61 205 231 228 230 227 226 216 212 219 227 236 245 243 245 248 251 247 248 251 250 249 246 241 238 243 249 245 237 234 244
352 355 348 352 344 8 23 47 43 43 51 53 51 79 85 100 107 129 154 185 198 206 222 208 196 198 204 213 225 225 207 208 206 207 216 223 246 242 246 240 238 241 238
355 8 9 15 3 38 47 47 57 64 59 69 67 65 68 69 78 85 107 116 121 118 138 149 140 149 151 154 145 157 156 169 184 187 193 203 213 221 235 241 243 250 254
13 0 30 47 38 31 47 60 67 63 63 66 71 74 72 70 67 66 72 80 86 104 101 88 77 83 117 106 122 134 135 134 148 158 164 159 168 200 220 241 251 249 253
20 2 31 38 43 30 58 52 63 61 61 62 62 63 65 62 60 63 68 81 83 75 77 86 93 95 77 72 83 97 106 104 98 91 51 169 212 238 271 266 256 236 236
21 16 14 34 53 49 51 48 59 43 52 55 68 66 63 60 49 49 76 77 86 84 96 98 89 95 109 106 84 88 90 85 16 337 300 267 261 259 258 224 183 259 262
13 358 3 9 62 54 36 44 51 46 47 68 62 59 59 58 51 49 106 80 91 77 76 91 88 73 57 47 31 358 332 319 344 29 44 75 92 88 92 60 34 360 303
43 51 20 39 28 36 33 52 46 53 63 65 57 56 42 39 48 58 78 78 78 81 74 61 36 15 31 25 16 12 358 345 10 70 99 85 80 72 80 36 28 5 303
101 58 30 51 69 53 71 42 23 23 52 74 78 38 18 29 36 24 35 40 67 45 75 75 14 358 7 2 14 47 48 94 71 41 358 307 306 316 324 315 320 334 318
54 30 33 18 60 30 22 27 40 56 70 81 92 86 53 42 63 60 45 31 16 321 269 276 285 280 220 271 283 310 47 99 341 282 287 299 282 277 303 287 287 292 284
41 28 35 40 60 76 65 61 77 76 86 90 96 98 93 84 76 70 64 57 46 46 51 46 233 217 226 244 252 253 250 255 255 258 275 279 268 270 272 267 275 281 282
137 160 98 82 97 100 80 83 85 92 86 82 71 55 28 19 16 19 18 9 358 350 345 355 3 338 325 316 291 261 256 261 268 274 281 274 272 273 266 271 283 284 279
130 116 120 97 79 76 88 96 103 103 93 80 70 60 40 14 354 347 341 338 338 330 314 311 311 316 320 314 304 291 282 294 280 301 289 284 280 279 277 270 268 267 270
153 110 98 85 67 66 66 73 75 81 83 75 81 61 42 27 0 352 340 330 325 323 329 310 300 299 300 301 301 299 296 294 294 292 293 293 290 288 286 282 276 274 266
134 84 46 45 54 53 47 46 48 49 46 28 4 357 352 349 346 334 321 317 318 321 325 321 315 313 308 295 293 292 292 294 295 296 297 296 293 290 289 288 286 281 271